| time (UTC) | temp F | wind direction | speed MPH | gust MPH | rain 1hr in | rain 24hr in | rain mn in | humidity % | barometer mb |
| 20260510104906 | 44 | 86 | 2.0 | 2.0 | 0.00 | 0.07 | 0.01 | 69 | 1008.2 |
| 20260510103905 | 44 | 76 | 2.0 | 2.0 | 0.00 | 0.07 | 0.01 | 71 | 1008.1 |
| 20260510102905 | 44 | 67 | 1.0 | 2.0 | 0.00 | 0.07 | 0.01 | 70 | 1008.1 |
| 20260510101906 | 44 | 91 | 1.0 | 3.0 | 0.00 | 0.07 | 0.01 | 71 | 1007.9 |
| 20260510100906 | 44 | 81 | 2.0 | 3.0 | 0.00 | 0.07 | 0.01 | 71 | 1007.8 |
| 20260510095906 | 45 | 90 | 2.0 | 5.0 | 0.00 | 0.07 | 0.01 | 67 | 1007.6 |
| 20260510094906 | 44 | 110 | 1.0 | 5.0 | 0.00 | 0.07 | 0.01 | 70 | 1007.3 |
| 20260510093907 | 44 | 87 | 2.0 | 3.0 | 0.00 | 0.07 | 0.01 | 70 | 1007.1 |
| 20260510092906 | 44 | 87 | 2.0 | 3.0 | 0.00 | 0.07 | 0.01 | 70 | 1006.3 |
| 20260510091906 | 44 | 74 | 1.0 | 3.0 | 0.00 | 0.07 | 0.01 | 69 | 1006.2 |
| 20260510085906 | 44 | 83 | 2.0 | 2.0 | 0.00 | 0.07 | 0.01 | 68 | 1006.0 |
| 20260510084904 | 44 | 71 | 1.0 | 5.0 | 0.00 | 0.07 | 0.01 | 68 | 1005.8 |
| 20260510083905 | 43 | 73 | 2.0 | 5.0 | 0.00 | 0.07 | 0.01 | 67 | 1005.5 |
| 20260510082905 | 43 | 79 | 2.0 | 3.0 | 0.00 | 0.07 | 0.01 | 71 | 1004.9 |
| 20260510080907 | 43 | 97 | 2.0 | 2.0 | 0.00 | 0.07 | 0.01 | 73 | 1004.5 |
| 20260510075906 | 44 | 113 | 2.0 | 3.0 | 0.00 | 0.07 | 0.01 | 75 | 1004.2 |
| 20260510074905 | 44 | 94 | 1.0 | 2.0 | 0.00 | 0.07 | 0.01 | 74 | 1003.8 |
| 20260510072907 | 45 | 83 | 2.0 | 2.0 | 0.00 | 0.07 | 0.01 | 74 | 1003.4 |
| 20260510071906 | 45 | 86 | 1.0 | 2.0 | 0.00 | 0.07 | 0.01 | 74 | 1003.7 |
| 20260510070907 | 44 | 83 | 2.0 | 2.0 | 0.00 | 0.07 | 0.01 | 75 | 1003.5 |
| 20260510065905 | 44 | 118 | 2.0 | 2.0 | 0.00 | 0.07 | 0.01 | 75 | 1003.3 |
| 20260510064907 | 44 | 91 | 1.0 | 3.0 | 0.00 | 0.07 | 0.01 | 75 | 1003.1 |
| 20260510063905 | 44 | 73 | 1.0 | 3.0 | 0.00 | 0.07 | 0.01 | 74 | 1002.8 |
| 20260510062906 | 45 | 93 | 1.0 | 2.0 | 0.00 | 0.07 | 0.01 | 72 | 1002.7 |
| 20260510061906 | 45 | 112 | 1.0 | 2.0 | 0.00 | 0.07 | 0.01 | 71 | 1002.3 |
| 20260510060905 | 46 | 83 | 2.0 | 2.0 | 0.00 | 0.07 | 0.01 | 71 | 1002.2 |
| 20260510055906 | 46 | 80 | 1.0 | 2.0 | 0.00 | 0.07 | 0.01 | 70 | 1001.9 |
| 20260510054907 | 46 | 71 | 1.0 | 2.0 | 0.00 | 0.07 | 0.01 | 68 | 1001.7 |
| 20260510053912 | 46 | 82 | 1.0 | 2.0 | 0.00 | 0.07 | 0.01 | 68 | 1001.1 |
| 20260510051906 | 46 | 94 | 2.0 | 5.0 | 0.00 | 0.07 | 0.01 | 66 | 1000.8 |
| 20260510050907 | 46 | 73 | 1.0 | 2.0 | 0.00 | 0.07 | 0.01 | 67 | 1000.5 |
| 20260510044906 | 47 | 85 | 1.0 | 2.0 | 0.00 | 0.07 | 0.01 | 66 | 999.8 |
| 20260510042905 | 48 | 94 | 2.0 | 3.0 | 0.00 | 0.07 | 0.01 | 64 | 999.1 |
| 20260510041905 | 49 | 90 | 1.0 | 3.0 | 0.00 | 0.07 | 0.01 | 64 | 998.8 |
| 20260510040906 | 50 | 142 | 1.0 | 2.0 | 0.00 | 0.07 | 0.01 | 61 | 998.6 |
| 20260510034906 | 52 | 95 | 1.0 | 2.0 | 0.00 | 0.07 | 0.01 | 57 | 998.3 |
| 20260510033907 | 53 | 134 | 1.0 | 3.0 | 0.00 | 0.07 | 0.01 | 57 | 998.0 |
| 20260510031906 | 54 | 99 | 1.0 | 3.0 | 0.00 | 0.07 | 0.01 | 57 | 997.5 |
| 20260510030906 | 53 | 95 | 2.0 | 3.0 | 0.00 | 0.07 | 0.01 | 56 | 997.1 |
| 20260510025907 | 53 | 108 | 2.0 | 3.0 | 0.00 | 0.07 | 0.01 | 57 | 997.0 |
| 20260510024906 | 53 | 112 | 1.0 | 2.0 | 0.00 | 0.07 | 0.01 | 56 | 996.7 |
| 20260510023906 | 53 | 127 | 1.0 | 2.0 | 0.00 | 0.07 | 0.01 | 59 | 996.6 |
| 20260510022905 | 52 | 111 | 1.0 | 2.0 | 0.00 | 0.07 | 0.01 | 62 | 996.6 |
| 20260510021906 | 53 | 119 | 1.0 | 3.0 | 0.00 | 0.07 | 0.01 | 61 | 996.4 |
| 20260510015909 | 53 | 122 | 1.0 | 2.0 | 0.00 | 0.07 | 0.01 | 61 | 996.5 |
| 20260510014905 | 52 | 74 | 2.0 | 2.0 | 0.00 | 0.07 | 0.01 | 64 | 996.2 |
| 20260510013905 | 51 | 116 | 1.0 | 3.0 | 0.00 | 0.07 | 0.01 | 66 | 995.9 |
| 20260510011906 | 53 | 157 | 3.0 | 3.0 | 0.00 | 0.07 | 0.01 | 64 | 995.2 |
| 20260510010906 | 53 | 113 | 2.0 | 2.0 | 0.00 | 0.07 | 0.01 | 64 | 995.1 |
| 20260510004906 | 53 | 111 | 1.0 | 3.0 | 0.00 | 0.07 | 0.01 | 69 | 995.0 |
| 20260510003905 | 52 | 70 | 1.0 | 2.0 | 0.00 | 0.07 | 0.01 | 71 | 994.6 |
| 20260510002907 | 52 | 98 | 1.0 | 2.0 | 0.00 | 0.07 | 0.01 | 73 | 994.6 |
| 20260510001905 | 51 | 104 | 1.0 | 2.0 | 0.00 | 0.07 | 0.01 | 72 | 994.8 |
| 20260510000905 | 51 | 113 | 1.0 | 2.0 | 0.00 | 0.07 | 0.01 | 70 | 994.8 |
| 20260509235907 | 51 | 101 | 2.0 | 2.0 | 0.00 | 0.07 | 0.01 | 73 | 994.8 |
| 20260509232905 | 50 | 98 | 1.0 | 2.0 | 0.00 | 0.07 | 0.01 | 71 | 994.7 |
| 20260509231907 | 50 | 92 | 1.0 | 2.0 | 0.00 | 0.07 | 0.01 | 71 | 994.5 |
| 20260509224905 | 50 | 69 | 1.0 | 2.0 | 0.00 | 0.08 | 0.01 | 74 | 993.7 |
| 20260509223908 | 50 | 70 | 1.0 | 3.0 | 0.00 | 0.08 | 0.01 | 72 | 993.9 |
| 20260509222906 | 50 | 87 | 1.0 | 2.0 | 0.00 | 0.08 | 0.01 | 72 | 993.9 |
| 20260509221906 | 50 | 66 | 1.0 | 2.0 | 0.00 | 0.08 | 0.01 | 74 | 994.2 |
| 20260509220906 | 49 | 101 | 1.0 | 3.0 | 0.00 | 0.08 | 0.01 | 76 | 994.2 |
| 20260509215905 | 49 | 75 | 1.0 | 2.0 | 0.00 | 0.08 | 0.01 | 77 | 993.7 |
| 20260509214905 | 49 | 94 | 1.0 | 2.0 | 0.00 | 0.07 | 0.00 | 78 | 993.8 |
| 20260509213907 | 49 | 109 | 2.0 | 3.0 | 0.00 | 0.07 | 0.00 | 78 | 993.5 |
| 20260509212906 | 49 | 92 | 2.0 | 2.0 | 0.00 | 0.07 | 0.00 | 80 | 993.5 |
| 20260509211906 | 48 | 95 | 1.0 | 2.0 | 0.00 | 0.07 | 0.00 | 83 | 993.2 |
| 20260509210905 | 48 | 85 | 2.0 | 2.0 | 0.00 | 0.07 | 0.00 | 83 | 992.9 |
| 20260509205905 | 48 | 108 | 1.0 | 2.0 | 0.00 | 0.07 | 0.00 | 85 | 992.5 |
| 20260509204906 | 48 | 105 | 1.0 | 2.0 | 0.00 | 0.07 | 0.00 | 86 | 992.4 |
| 20260509203905 | 49 | 91 | 1.0 | 3.0 | 0.00 | 0.07 | 0.00 | 84 | 992.0 |
| 20260509202906 | 49 | 124 | 1.0 | 2.0 | 0.00 | 0.07 | 0.00 | 81 | 991.6 |
| 20260509201905 | 49 | 109 | 1.0 | 2.0 | 0.00 | 0.07 | 0.00 | 82 | 991.1 |
| 20260509200906 | 49 | 70 | 2.0 | 2.0 | 0.00 | 0.07 | 0.00 | 84 | 991.0 |
| 20260509200724 | 49 | 70 | 2.0 | 0.0 | 0.00 | 0.07 | 0.00 | 84 | 991.0 |
| 20260509200715 | 49 | 70 | 2.0 | 2.0 | 0.00 | 0.07 | 0.00 | 84 | 991.0 |
| 20260509194905 | 49 | 104 | 1.0 | 2.0 | 0.00 | 0.07 | 0.00 | 84 | 990.6 |
| 20260509193906 | 50 | 93 | 1.0 | 2.0 | 0.00 | 0.07 | 0.00 | 85 | 990.3 |
| 20260509192906 | 50 | 76 | 2.0 | 2.0 | 0.00 | 0.07 | 0.00 | 87 | 990.1 |
| 20260509191906 | 50 | 143 | 1.0 | 2.0 | 0.00 | 0.08 | 0.00 | 89 | 990.3 |
| 20260509190906 | 51 | 117 | 2.0 | 3.0 | 0.00 | 0.08 | 0.00 | 89 | 990.1 |
| 20260509185905 | 51 | 120 | 1.0 | 2.0 | 0.00 | 0.08 | 0.00 | 89 | 989.8 |
| 20260509184905 | 50 | 122 | 2.0 | 2.0 | 0.00 | 0.08 | 0.00 | 96 | 989.7 |
| 20260509183905 | 49 | 92 | 1.0 | 2.0 | 0.00 | 0.08 | 0.00 | 99 | 989.6 |
| 20260509182905 | 49 | 86 | 1.0 | 2.0 | 0.00 | 0.08 | 0.00 | 99 | 989.7 |
| 20260509181905 | 49 | 72 | 1.0 | 2.0 | 0.00 | 0.08 | 0.00 | 99 | 989.4 |
| 20260509180906 | 49 | 86 | 2.0 | 2.0 | 0.00 | 0.08 | 0.00 | 99 | 989.5 |
| 20260509174906 | 49 | 73 | 1.0 | 2.0 | 0.00 | 0.08 | 0.00 | 99 | 989.1 |
| 20260509173905 | 49 | 95 | 1.0 | 3.0 | 0.00 | 0.08 | 0.00 | 99 | 988.5 |
| 20260509165905 | 47 | 69 | 2.0 | 2.0 | 0.00 | 0.09 | 0.00 | 99 | 987.5 |
| 20260509164905 | 47 | 71 | 1.0 | 2.0 | 0.00 | 0.09 | 0.00 | 99 | 987.6 |
| 20260509163905 | 47 | 73 | 2.0 | 2.0 | 0.00 | 0.09 | 0.00 | 98 | 987.6 |
| 20260509162905 | 47 | 86 | 1.0 | 3.0 | 0.00 | 0.10 | 0.00 | 98 | 987.5 |
| 20260509160906 | 47 | 80 | 2.0 | 2.0 | 0.00 | 0.11 | 0.00 | 98 | 987.0 |
| 20260509155906 | 47 | 70 | 2.0 | 2.0 | 0.00 | 0.13 | 0.00 | 98 | 987.0 |
| 20260509154906 | 48 | 68 | 2.0 | 2.0 | 0.00 | 0.13 | 0.00 | 98 | 987.2 |
| 20260509152906 | 49 | 82 | 1.0 | 2.0 | 0.00 | 0.13 | 0.00 | 97 | 986.9 |
| 20260509151906 | 49 | 78 | 2.0 | 2.0 | 0.00 | 0.13 | 0.00 | 97 | 987.1 |
| 20260509145905 | 50 | 63 | 2.0 | 2.0 | 0.00 | 0.13 | 0.00 | 96 | 987.3 |
| 20260509143906 | 51 | 77 | 2.0 | 2.0 | 0.00 | 0.13 | 0.00 | 97 | 987.2 |
| 20260509142906 | 51 | 69 | 1.0 | 2.0 | 0.00 | 0.13 | 0.00 | 97 | 987.4 |
| 20260509141907 | 51 | 61 | 1.0 | 2.0 | 0.00 | 0.13 | 0.00 | 97 | 987.6 |
| 20260509140905 | 51 | 65 | 2.0 | 2.0 | 0.00 | 0.13 | 0.00 | 97 | 987.7 |
| 20260509135906 | 51 | 92 | 1.0 | 2.0 | 0.00 | 0.13 | 0.00 | 97 | 987.8 |
| 20260509133905 | 51 | 84 | 1.0 | 2.0 | 0.00 | 0.13 | 0.00 | 99 | 988.1 |
| 20260509132907 | 51 | 70 | 1.0 | 2.0 | 0.00 | 0.13 | 0.00 | 99 | 987.8 |
| 20260509131906 | 51 | 91 | 1.0 | 2.0 | 0.00 | 0.13 | 0.00 | 99 | 987.7 |
| 20260509130907 | 51 | 102 | 1.0 | 2.0 | 0.00 | 0.13 | 0.00 | 99 | 987.7 |
| 20260509125906 | 51 | 86 | 1.0 | 2.0 | 0.07 | 0.13 | 0.00 | 99 | 987.6 |
| 20260509124906 | 51 | 79 | 1.0 | 2.0 | 0.07 | 0.13 | 0.00 | 99 | 987.5 |
| 20260509123906 | 51 | 67 | 1.0 | 2.0 | 0.07 | 0.13 | 0.00 | 99 | 987.6 |
| 20260509122906 | 51 | 80 | 1.0 | 2.0 | 0.07 | 0.13 | 0.00 | 99 | 987.7 |
| 20260509121906 | 51 | 72 | 2.0 | 2.0 | 0.07 | 0.13 | 0.00 | 99 | 987.4 |
| 20260509120905 | 50 | 84 | 1.0 | 2.0 | 0.07 | 0.13 | 0.00 | 99 | 987.4 |
| 20260509115905 | 50 | 51 | 2.0 | 3.0 | 0.00 | 0.07 | 0.07 | 99 | 987.3 |
| 20260509114906 | 49 | 77 | 2.0 | 3.0 | 0.00 | 0.07 | 0.07 | 99 | 987.3 |
| 20260509113906 | 49 | 77 | 2.0 | 3.0 | 0.00 | 0.07 | 0.07 | 98 | 987.5 |
| 20260509112907 | 49 | 87 | 2.0 | 3.0 | 0.00 | 0.07 | 0.07 | 98 | 987.7 |
| 20260509105906 | 49 | 63 | 2.0 | 2.0 | 0.00 | 0.07 | 0.07 | 98 | 987.8 |